M I D A S
Marine Information and Data Acquisition System
Tripno 1974 of the Zeeleeuw from 2010-10-18 06:53:57 to 2010-10-18 15:41:18
Back to CruiseResearch ActivitiesStationsMapUnderway DataData graphs

EquipmentUnitsComments
TimeDGPSUTC
LatitudeDGPSDM.mWGS84
LongitudeDGPSDM.mWGS84
SpeedMeteo Stationm/sRelative wind speed
DirectionMeteo StationdegRelative wind direction
TemperatureMeteo Stationdeg CelciusAir temperature
PressureMeteo StationPaAtmospheric pressure
HumidityMeteo Station%Relative humidity
Missing or incorrect values are displayed as -999
Metereological data collected by the RV Zeeleeuw from 2010-10-18 06:22:17 to 2010-10-18 15:50:19
                                                                                    Next 1000 lines
Time Latitude Longitude Speed Direction Temperature Pressure Humidity
2010-10-18 06:22:27 51°13.662 2°55.959 2.9 17 5.7 102180 43
2010-10-18 06:22:32 51°13.663 2°55.959 2.7 20 5.7 102180 42
2010-10-18 06:22:37 51°13.663 2°55.958 2.4 9 5.7 102180 42
2010-10-18 06:22:42 51°13.663 2°55.958 2.6 18 5.7 102180 42
2010-10-18 06:22:47 51°13.663 2°55.959 2.8 21 5.7 102180 42
2010-10-18 06:22:52 51°13.663 2°55.959 2.8 21 5.7 102170 42
2010-10-18 06:22:57 51°13.663 2°55.958 1.8 19 5.7 102170 42
2010-10-18 06:23:02 51°13.663 2°55.958 1.9 22 5.7 102170 42
2010-10-18 06:23:07 51°13.663 2°55.958 1.5 18 5.7 102170 42
2010-10-18 06:23:12 51°13.663 2°55.958 2.4 18 5.7 102180 43
2010-10-18 06:23:17 51°13.663 2°55.958 1.2 358 5.7 102180 43
2010-10-18 06:23:22 51°13.663 2°55.958 0.8 8 5.7 102180 42
2010-10-18 06:23:27 51°13.663 2°55.958 0.1 16 5.7 102180 42
2010-10-18 06:23:32 51°13.663 2°55.958 0.1 357 5.7 102180 42
2010-10-18 06:23:37 51°13.662 2°55.958 0.1 15 5.7 102180 42
2010-10-18 06:23:42 51°13.662 2°55.959 0.3 16 5.7 102180 42
2010-10-18 06:23:47 51°13.662 2°55.959 1.4 13 5.7 102180 42
2010-10-18 06:23:52 51°13.662 2°55.959 2.3 21 5.7 102170 42
2010-10-18 06:23:57 51°13.663 2°55.958 3.7 19 5.7 102170 42
2010-10-18 06:24:02 51°13.663 2°55.958 4.3 18 5.7 102180 42
2010-10-18 06:24:07 51°13.663 2°55.958 3.5 357 5.7 102180 42
2010-10-18 06:24:12 51°13.663 2°55.958 3.5 13 5.7 102170 42
2010-10-18 06:24:17 51°13.663 2°55.958 3.3 18 5.7 102170 42
2010-10-18 06:24:22 51°13.663 2°55.958 4 13 5.7 102170 43
2010-10-18 06:24:27 51°13.663 2°55.958 3.5 9 5.7 102170 43
2010-10-18 06:24:32 51°13.663 2°55.959 3.5 14 5.7 102170 42
2010-10-18 06:24:37 51°13.664 2°55.958 3.8 9 5.7 102170 42
2010-10-18 06:24:42 51°13.663 2°55.959 2.6 3 5.7 102170 42
2010-10-18 06:24:47 51°13.663 2°55.959 4 14 5.7 102170 42
2010-10-18 06:24:52 51°13.663 2°55.959 3.4 14 5.7 102180 42
2010-10-18 06:24:57 51°13.663 2°55.959 1.9 18 5.7 102180 42
2010-10-18 06:25:02 51°13.664 2°55.959 2.3 14 5.7 102180 42
2010-10-18 06:25:07 51°13.664 2°55.959 3.5 16 5.7 102180 42
2010-10-18 06:25:12 51°13.664 2°55.96 3.2 11 5.7 102180 43
2010-10-18 06:25:17 51°13.664 2°55.96 2.9 16 5.7 102180 43
2010-10-18 06:25:22 51°13.664 2°55.96 3 8 5.7 102180 41
2010-10-18 06:25:27 51°13.664 2°55.96 2.4 22 5.7 102180 41
2010-10-18 06:25:32 51°13.663 2°55.96 2.1 12 5.8 102170 44
2010-10-18 06:25:37 51°13.663 2°55.96 0.6 26 5.8 102170 44
2010-10-18 06:25:42 51°13.663 2°55.96 0.2 15 5.8 102180 44
2010-10-18 06:25:47 51°13.663 2°55.96 3.2 22 5.8 102180 44
2010-10-18 06:25:52 51°13.663 2°55.961 2.4 17 5.8 102180 43
2010-10-18 06:25:57 51°13.663 2°55.961 2 5 5.8 102180 43
2010-10-18 06:26:02 51°13.663 2°55.961 2.5 8 5.8 102170 42
2010-10-18 06:26:07 51°13.663 2°55.96 3.2 12 5.8 102170 42
2010-10-18 06:26:12 51°13.663 2°55.961 4.1 8 5.8 102170 42
2010-10-18 06:26:17 51°13.663 2°55.961 3.1 16 5.8 102170 42
2010-10-18 06:26:22 51°13.663 2°55.961 3.1 24 5.8 102180 42
2010-10-18 06:26:27 51°13.663 2°55.96 2.9 5 5.8 102180 42
2010-10-18 06:26:32 51°13.663 2°55.96 2.9 5 5.8 102180 41
2010-10-18 06:26:37 51°13.663 2°55.96 3.2 7 5.8 102180 41
2010-10-18 06:26:42 51°13.663 2°55.96 3 6 5.8 102180 41
2010-10-18 06:26:47 51°13.663 2°55.96 2.4 12 5.8 102180 41
2010-10-18 06:26:52 51°13.663 2°55.96 2.2 5 5.8 102180 43
2010-10-18 06:26:57 51°13.663 2°55.96 1.9 20 5.8 102180 43
2010-10-18 06:27:02 51°13.663 2°55.959 2.4 26 5.8 102170 44
2010-10-18 06:27:07 51°13.663 2°55.959 1.6 18 5.8 102170 44
2010-10-18 06:27:12 51°13.662 2°55.959 1.2 359 5.8 102170 41
2010-10-18 06:27:17 51°13.662 2°55.959 2.8 11 5.8 102170 41
2010-10-18 06:27:22 51°13.662 2°55.959 2.9 16 5.8 102180 44
2010-10-18 06:27:27 51°13.662 2°55.959 2.1 4 5.8 102180 44
2010-10-18 06:27:32 51°13.662 2°55.959 1.9 15 5.8 102170 43
2010-10-18 06:27:37 51°13.662 2°55.959 2.2 9 5.8 102170 43
2010-10-18 06:27:42 51°13.662 2°55.959 2.6 20 5.8 102170 41
2010-10-18 06:27:47 51°13.662 2°55.959 2.1 15 5.8 102170 41
2010-10-18 06:27:52 51°13.662 2°55.959 2.2 17 5.8 102180 43
2010-10-18 06:27:57 51°13.662 2°55.959 1.4 30 5.8 102180 43
2010-10-18 06:28:02 51°13.662 2°55.959 0.8 24 5.8 102180 42
2010-10-18 06:28:07 51°13.662 2°55.959 0.2 8 5.8 102180 42
2010-10-18 06:28:12 51°13.662 2°55.959 1.4 8 5.8 102170 44
2010-10-18 06:28:18 51°13.662 2°55.959 2.2 8 5.8 102170 44
2010-10-18 06:28:22 51°13.662 2°55.959 2 10 5.8 102180 44
2010-10-18 06:28:27 51°13.663 2°55.959 2.6 4 5.8 102180 44
2010-10-18 06:28:32 51°13.663 2°55.959 1.8 360 5.8 102170 41
2010-10-18 06:28:37 51°13.663 2°55.959 1.7 22 5.8 102170 41
2010-10-18 06:28:42 51°13.663 2°55.959 0.6 13 5.8 102170 43
2010-10-18 06:28:47 51°13.663 2°55.959 0.2 14 5.8 102170 43
2010-10-18 06:28:52 51°13.663 2°55.959 1.9 23 5.8 102170 44
2010-10-18 06:28:57 51°13.663 2°55.959 1.3 21 5.8 102170 44
2010-10-18 06:29:02 51°13.663 2°55.959 0.6 17 5.8 102170 42
2010-10-18 06:29:07 51°13.663 2°55.959 1.6 13 5.8 102170 42
2010-10-18 06:29:12 51°13.663 2°55.959 2.8 13 5.8 102180 44
2010-10-18 06:29:17 51°13.662 2°55.959 2.3 17 5.8 102180 44
2010-10-18 06:29:22 51°13.662 2°55.959 2 19 5.8 102170 42
2010-10-18 06:29:27 51°13.662 2°55.959 1.7 21 5.8 102170 42
2010-10-18 06:29:32 51°13.662 2°55.959 1.5 13 5.8 102170 43
2010-10-18 06:29:37 51°13.662 2°55.959 0.3 16 5.8 102170 43
2010-10-18 06:29:42 51°13.662 2°55.959 2.2 26 5.8 102180 43
2010-10-18 06:29:47 51°13.662 2°55.959 2.6 11 5.8 102180 43
2010-10-18 06:29:52 51°13.662 2°55.959 4.1 16 5.8 102170 42
2010-10-18 06:29:57 51°13.662 2°55.959 4 7 5.8 102170 42
2010-10-18 06:30:02 51°13.663 2°55.959 3.9 12 5.8 102170 42
2010-10-18 06:30:07 51°13.663 2°55.959 3.5 14 5.8 102170 42
2010-10-18 06:30:12 51°13.663 2°55.959 3.7 13 5.8 102180 42
2010-10-18 06:30:17 51°13.663 2°55.959 2.3 16 5.8 102180 42
2010-10-18 06:30:22 51°13.663 2°55.959 1.9 11 5.8 102180 42
2010-10-18 06:30:27 51°13.663 2°55.959 2.7 5 5.8 102180 42
2010-10-18 06:30:32 51°13.663 2°55.959 2.4 9 5.8 102170 41
2010-10-18 06:30:37 51°13.663 2°55.959 0.2 24 5.8 102170 41
2010-10-18 06:30:42 51°13.663 2°55.96 1 25 5.8 102170 41
2010-10-18 06:30:47 51°13.663 2°55.959 1.3 10 5.8 102170 41
2010-10-18 06:30:52 51°13.663 2°55.96 1.6 6 5.8 102170 42
2010-10-18 06:30:57 51°13.663 2°55.96 2.9 25 5.8 102170 42
2010-10-18 06:31:02 51°13.663 2°55.96 1.6 24 5.8 102170 41
2010-10-18 06:31:07 51°13.663 2°55.96 2.7 24 5.8 102170 41
2010-10-18 06:31:12 51°13.663 2°55.96 2.2 31 5.8 102170 41
2010-10-18 06:31:17 51°13.663 2°55.96 3.9 18 5.8 102170 41
2010-10-18 06:31:22 51°13.663 2°55.96 2.4 11 5.8 102170 43
2010-10-18 06:31:27 51°13.664 2°55.96 2 15 5.8 102170 43
2010-10-18 06:31:32 51°13.664 2°55.96 2.1 30 5.8 102170 42
2010-10-18 06:31:37 51°13.665 2°55.959 3 8 5.8 102170 42
2010-10-18 06:31:42 51°13.665 2°55.959 2 10 5.8 102170 43
2010-10-18 06:31:47 51°13.665 2°55.959 1.7 4 5.8 102170 43
2010-10-18 06:31:52 51°13.665 2°55.959 1.6 1 5.8 102170 42
2010-10-18 06:31:57 51°13.665 2°55.959 1.9 22 5.8 102170 42
2010-10-18 06:32:02 51°13.665 2°55.959 1.3 18 5.8 102170 43
2010-10-18 06:32:07 51°13.665 2°55.959 1.9 18 5.8 102170 43
2010-10-18 06:32:12 51°13.664 2°55.959 2.3 14 5.8 102170 41
2010-10-18 06:32:17 51°13.663 2°55.959 1.7 11 5.8 102170 41
2010-10-18 06:32:22 51°13.663 2°55.96 1.5 15 5.8 102180 42
2010-10-18 06:32:27 51°13.662 2°55.96 0.3 16 5.8 102180 42
2010-10-18 06:32:32 51°13.662 2°55.96 0.1 20 5.8 102180 42
2010-10-18 06:32:37 51°13.662 2°55.96 2 358 5.8 102180 42
2010-10-18 06:32:42 51°13.662 2°55.96 3 33 5.8 102180 44
2010-10-18 06:32:47 51°13.663 2°55.96 2.8 17 5.8 102180 44
2010-10-18 06:32:52 51°13.663 2°55.96 2.6 15 5.8 102170 42
2010-10-18 06:32:57 51°13.663 2°55.96 3.3 26 5.8 102170 42
2010-10-18 06:33:02 51°13.663 2°55.96 2.9 5 5.8 102170 43
2010-10-18 06:33:07 51°13.663 2°55.96 3.1 9 5.8 102170 43
2010-10-18 06:33:12 51°13.663 2°55.96 2.8 7 5.8 102180 42
2010-10-18 06:33:17 51°13.663 2°55.96 2.8 9 5.8 102180 42
2010-10-18 06:33:22 51°13.663 2°55.96 2.7 10 5.8 102180 43
2010-10-18 06:33:27 51°13.663 2°55.96 2.5 12 5.8 102180 43
2010-10-18 06:33:32 51°13.663 2°55.96 2.8 17 5.8 102170 43
2010-10-18 06:33:37 51°13.663 2°55.96 3 14 5.8 102170 43
2010-10-18 06:33:42 51°13.663 2°55.96 2.9 11 5.9 102180 43
2010-10-18 06:33:47 51°13.663 2°55.96 2.2 3 5.9 102180 43
2010-10-18 06:33:52 51°13.663 2°55.96 2.3 18 5.8 102170 42
2010-10-18 06:33:57 51°13.663 2°55.96 2.4 21 5.8 102170 42
2010-10-18 06:34:02 51°13.663 2°55.961 2.5 23 5.9 102180 43
2010-10-18 06:34:07 51°13.662 2°55.961 2.4 24 5.9 102180 43
2010-10-18 06:34:12 51°13.662 2°55.961 2.3 19 5.9 102180 41
2010-10-18 06:34:17 51°13.662 2°55.961 1.4 9 5.9 102180 41
2010-10-18 06:34:22 51°13.662 2°55.961 1.1 8 5.9 102180 41
2010-10-18 06:34:27 51°13.662 2°55.961 0.1 17 5.9 102180 41
2010-10-18 06:34:32 51°13.662 2°55.961 -999 16 5.9 102180 43
2010-10-18 06:34:37 51°13.662 2°55.961 0.3 2 5.9 102180 43
2010-10-18 06:34:42 51°13.662 2°55.961 0.3 15 5.9 102180 42
2010-10-18 06:34:47 51°13.662 2°55.961 2.4 16 5.9 102180 42
2010-10-18 06:34:52 51°13.662 2°55.961 1.5 9 5.9 102180 42
2010-10-18 06:34:57 51°13.662 2°55.961 1 11 5.9 102180 42
2010-10-18 06:35:02 51°13.662 2°55.961 2 14 5.9 102180 41
2010-10-18 06:35:07 51°13.662 2°55.961 1.6 1 5.9 102180 41
2010-10-18 06:35:12 51°13.662 2°55.961 3.5 19 5.9 102180 42
2010-10-18 06:35:17 51°13.663 2°55.961 2.2 5 5.9 102180 42
2010-10-18 06:35:22 51°13.662 2°55.96 1.6 8 5.9 102180 42
2010-10-18 06:35:27 51°13.662 2°55.96 1.8 13 5.9 102180 42
2010-10-18 06:35:32 51°13.663 2°55.961 1.2 12 5.9 102180 41
2010-10-18 06:35:37 51°13.662 2°55.96 1.7 23 5.9 102180 41
2010-10-18 06:35:42 51°13.662 2°55.96 2.2 27 5.9 102180 43
2010-10-18 06:35:47 51°13.663 2°55.961 2.8 21 5.9 102180 43
2010-10-18 06:35:52 51°13.662 2°55.961 2.6 15 5.9 102180 42
2010-10-18 06:35:57 51°13.662 2°55.961 0.5 11 5.9 102180 42
2010-10-18 06:36:02 51°13.663 2°55.961 2.1 13 5.9 102180 42
2010-10-18 06:36:07 51°13.662 2°55.961 1.2 11 5.9 102180 42
2010-10-18 06:36:12 51°13.662 2°55.961 0.9 11 5.9 102180 41
2010-10-18 06:36:17 51°13.662 2°55.961 2.7 20 5.9 102180 41
2010-10-18 06:36:22 51°13.662 2°55.961 3.5 16 5.9 102180 42
2010-10-18 06:36:27 51°13.662 2°55.961 3.7 14 5.9 102180 42
2010-10-18 06:36:32 51°13.663 2°55.961 2.5 10 5.9 102180 41
2010-10-18 06:36:37 51°13.663 2°55.961 2.9 14 5.9 102180 41
2010-10-18 06:36:42 51°13.663 2°55.961 3.5 19 5.9 102180 43
2010-10-18 06:36:47 51°13.663 2°55.961 3.3 1 5.9 102180 43
2010-10-18 06:36:52 51°13.663 2°55.961 3.3 11 5.9 102180 41
2010-10-18 06:36:57 51°13.663 2°55.96 2.6 12 5.9 102180 41
2010-10-18 06:37:02 51°13.663 2°55.96 2.2 16 5.9 102180 43
2010-10-18 06:37:07 51°13.663 2°55.96 2 19 5.9 102180 43
2010-10-18 06:37:12 51°13.663 2°55.96 2 39 5.9 102180 43
2010-10-18 06:37:17 51°13.663 2°55.96 2.3 13 5.9 102180 43
2010-10-18 06:37:22 51°13.663 2°55.96 2.3 8 5.9 102180 43
2010-10-18 06:37:27 51°13.663 2°55.96 3.5 2 5.9 102180 43
2010-10-18 06:37:32 51°13.663 2°55.96 3.4 6 5.9 102180 41
2010-10-18 06:37:37 51°13.663 2°55.96 2.5 5 5.9 102180 41
2010-10-18 06:37:42 51°13.663 2°55.96 2.8 8 5.9 102180 43
2010-10-18 06:37:47 51°13.663 2°55.96 2.6 3 5.9 102180 43
2010-10-18 06:37:52 51°13.663 2°55.959 2.7 10 5.9 102180 41
2010-10-18 06:37:57 51°13.663 2°55.959 3.3 17 5.9 102180 41
2010-10-18 06:38:02 51°13.663 2°55.959 3.5 10 5.9 102180 42
2010-10-18 06:38:07 51°13.663 2°55.959 2.6 7 5.9 102180 42
2010-10-18 06:38:12 51°13.662 2°55.959 2.6 13 5.9 102180 41
2010-10-18 06:38:17 51°13.662 2°55.96 2.9 10 5.9 102180 41
2010-10-18 06:38:22 51°13.662 2°55.96 2.6 9 5.9 102180 41
2010-10-18 06:38:27 51°13.662 2°55.96 2.9 20 5.9 102180 41
2010-10-18 06:38:32 51°13.662 2°55.96 2.4 19 5.9 102180 43
2010-10-18 06:38:37 51°13.662 2°55.96 3.7 12 5.9 102180 43
2010-10-18 06:38:42 51°13.662 2°55.96 2.7 6 5.9 102180 41
2010-10-18 06:38:47 51°13.662 2°55.96 2.2 18 5.9 102180 41
2010-10-18 06:38:52 51°13.662 2°55.96 3.3 10 5.9 102180 41
2010-10-18 06:38:57 51°13.662 2°55.96 3.1 11 5.9 102180 41
2010-10-18 06:39:02 51°13.662 2°55.96 2.3 14 5.9 102180 43
2010-10-18 06:39:07 51°13.662 2°55.96 2.1 11 5.9 102180 43
2010-10-18 06:39:12 51°13.663 2°55.96 1.7 3 5.9 102180 40
2010-10-18 06:39:17 51°13.663 2°55.96 2 19 5.9 102180 40
2010-10-18 06:39:22 51°13.663 2°55.96 2.9 8 5.9 102180 41
2010-10-18 06:39:27 51°13.663 2°55.96 1.7 8 5.9 102180 41
2010-10-18 06:39:32 51°13.663 2°55.96 1.5 7 5.9 102180 41
2010-10-18 06:39:37 51°13.662 2°55.96 1.1 17 5.9 102180 41
2010-10-18 06:39:42 51°13.663 2°55.96 1.4 9 5.9 102180 42
2010-10-18 06:39:47 51°13.663 2°55.959 1.7 14 5.9 102180 42
2010-10-18 06:39:52 51°13.663 2°55.96 0.9 30 5.9 102180 41
2010-10-18 06:39:57 51°13.663 2°55.96 1.9 15 5.9 102180 41
2010-10-18 06:40:02 51°13.663 2°55.96 2.8 12 5.9 102180 41
2010-10-18 06:40:07 51°13.662 2°55.96 3.2 23 5.9 102180 41
2010-10-18 06:40:12 51°13.662 2°55.96 3 23 5.9 102180 41
2010-10-18 06:40:17 51°13.662 2°55.96 0.8 10 5.9 102180 41
2010-10-18 06:40:22 51°13.662 2°55.96 0.3 13 5.9 102180 43
2010-10-18 06:40:27 51°13.662 2°55.96 1.3 14 5.9 102180 43
2010-10-18 06:40:32 51°13.662 2°55.96 2.4 14 5.9 102180 43
2010-10-18 06:40:37 51°13.662 2°55.96 2.9 19 5.9 102180 43
2010-10-18 06:40:42 51°13.662 2°55.96 2.9 12 5.9 102180 42
2010-10-18 06:40:47 51°13.662 2°55.96 3 16 5.9 102180 42
2010-10-18 06:40:52 51°13.662 2°55.96 3.4 11 6 102180 41
2010-10-18 06:40:57 51°13.662 2°55.96 3.3 9 6 102180 41
2010-10-18 06:41:02 51°13.662 2°55.96 3.1 5 6 102180 41
2010-10-18 06:41:07 51°13.662 2°55.96 3.9 8 6 102180 41
2010-10-18 06:41:12 51°13.662 2°55.96 3.8 3 6 102180 41
2010-10-18 06:41:17 51°13.662 2°55.96 2.5 14 6 102180 41
2010-10-18 06:41:22 51°13.662 2°55.96 3.3 6 6 102180 43
2010-10-18 06:41:27 51°13.662 2°55.96 3.5 5 6 102180 43
2010-10-18 06:41:32 51°13.662 2°55.96 3.5 12 6 102180 41
2010-10-18 06:41:37 51°13.662 2°55.96 3.1 14 6 102180 41
2010-10-18 06:41:42 51°13.662 2°55.96 2.7 18 6 102180 41
2010-10-18 06:41:47 51°13.662 2°55.96 1.9 9 6 102180 41
2010-10-18 06:41:52 51°13.662 2°55.96 1.9 8 6 102180 40
2010-10-18 06:41:57 51°13.662 2°55.96 3 24 6 102180 40
2010-10-18 06:42:02 51°13.662 2°55.96 3 27 5.9 102180 41
2010-10-18 06:42:07 51°13.662 2°55.959 2.6 9 5.9 102180 41
2010-10-18 06:42:12 51°13.662 2°55.959 2.8 7 6 102180 43
2010-10-18 06:42:17 51°13.662 2°55.959 2.3 17 6 102180 43
2010-10-18 06:42:22 51°13.662 2°55.959 2 24 5.9 102180 41
2010-10-18 06:42:27 51°13.662 2°55.959 0.7 21 5.9 102180 41
2010-10-18 06:42:32 51°13.662 2°55.959 1.7 13 6 102180 42
2010-10-18 06:42:37 51°13.662 2°55.959 0.9 6 6 102180 42
2010-10-18 06:42:42 51°13.662 2°55.959 0.4 10 6 102180 41
2010-10-18 06:42:47 51°13.662 2°55.959 4.3 12 6 102180 41
2010-10-18 06:42:52 51°13.662 2°55.959 4.2 10 6 102180 41
2010-10-18 06:42:57 51°13.662 2°55.959 3.8 8 6 102180 41
2010-10-18 06:43:02 51°13.662 2°55.959 3.7 10 6 102180 40
2010-10-18 06:43:07 51°13.663 2°55.959 3 21 6 102180 40
2010-10-18 06:43:12 51°13.663 2°55.959 2.9 23 6 102180 41
2010-10-18 06:43:17 51°13.662 2°55.959 2.7 13 6 102180 41
2010-10-18 06:43:22 51°13.663 2°55.959 2.2 23 6 102180 43
2010-10-18 06:43:27 51°13.663 2°55.959 2.5 6 6 102180 43
2010-10-18 06:43:32 51°13.663 2°55.959 2.9 13 6 102180 43
2010-10-18 06:43:37 51°13.663 2°55.959 3.5 2 6 102180 43
2010-10-18 06:43:42 51°13.663 2°55.959 3 8 6 102180 41
2010-10-18 06:43:47 51°13.662 2°55.959 2.5 15 6 102180 41
2010-10-18 06:43:52 51°13.662 2°55.959 3.1 12 5.9 102180 40
2010-10-18 06:43:57 51°13.662 2°55.959 2.5 19 5.9 102180 40
2010-10-18 06:44:02 51°13.662 2°55.959 1.5 21 6 102180 41
2010-10-18 06:44:07 51°13.662 2°55.959 0.3 24 6 102180 41
2010-10-18 06:44:12 51°13.662 2°55.959 0.2 33 6 102180 43
2010-10-18 06:44:17 51°13.662 2°55.959 1.6 32 6 102180 43
2010-10-18 06:44:22 51°13.662 2°55.959 0.5 14 6 102180 41
2010-10-18 06:44:27 51°13.662 2°55.959 0.9 4 6 102180 41
2010-10-18 06:44:32 51°13.662 2°55.959 3.1 10 6 102180 41
2010-10-18 06:44:37 51°13.662 2°55.959 2.9 13 6 102180 41
2010-10-18 06:44:42 51°13.662 2°55.959 2.3 17 6 102180 43
2010-10-18 06:44:47 51°13.662 2°55.959 2.7 15 6 102180 43
2010-10-18 06:44:52 51°13.662 2°55.959 3 10 6 102180 41
2010-10-18 06:44:57 51°13.663 2°55.959 3 5 6 102180 41
2010-10-18 06:45:02 51°13.662 2°55.959 2.7 14 6 102180 41
2010-10-18 06:45:07 51°13.662 2°55.959 2.1 17 6 102180 41
2010-10-18 06:45:12 51°13.662 2°55.959 1.9 20 6 102180 42
2010-10-18 06:45:17 51°13.663 2°55.959 2.7 16 6 102180 42
2010-10-18 06:45:22 51°13.663 2°55.959 1.8 19 6 102180 40
2010-10-18 06:45:27 51°13.663 2°55.959 3.8 11 6 102180 40
2010-10-18 06:45:32 51°13.663 2°55.959 3.7 7 6 102180 43
2010-10-18 06:45:37 51°13.663 2°55.959 3 20 6 102180 43
2010-10-18 06:45:42 51°13.663 2°55.959 3.1 22 6 102180 43
2010-10-18 06:45:47 51°13.663 2°55.959 2.8 8 6 102180 43
2010-10-18 06:45:52 51°13.663 2°55.959 3.6 4 6 102180 41
2010-10-18 06:45:57 51°13.663 2°55.959 2.6 4 6 102180 41
2010-10-18 06:46:02 51°13.663 2°55.959 3.2 10 6 102180 41
2010-10-18 06:46:07 51°13.663 2°55.959 4.1 7 6 102180 41
2010-10-18 06:46:12 51°13.663 2°55.959 3.8 9 6 102180 42
2010-10-18 06:46:17 51°13.663 2°55.959 4.1 11 6 102180 42
2010-10-18 06:46:22 51°13.663 2°55.96 3.2 13 6 102180 41
2010-10-18 06:46:27 51°13.663 2°55.959 2.3 19 6 102180 41
2010-10-18 06:46:32 51°13.663 2°55.96 2.7 13 6 102180 41
2010-10-18 06:46:37 51°13.663 2°55.96 2.6 12 6 102180 41
2010-10-18 06:46:42 51°13.662 2°55.96 2.4 14 6 102180 42
2010-10-18 06:46:47 51°13.663 2°55.96 2.8 16 6 102180 42
2010-10-18 06:46:52 51°13.663 2°55.96 2.7 12 6 102180 40
2010-10-18 06:46:57 51°13.662 2°55.96 2 11 6 102180 40
2010-10-18 06:47:02 51°13.663 2°55.96 2.3 9 6 102180 41
2010-10-18 06:47:07 51°13.663 2°55.96 2.8 6 6 102180 41
2010-10-18 06:47:12 51°13.663 2°55.96 3.5 359 6 102180 40
2010-10-18 06:47:17 51°13.663 2°55.96 3.6 14 6 102180 40
2010-10-18 06:47:22 51°13.663 2°55.96 2.7 -999 6 102180 42
2010-10-18 06:47:27 51°13.663 2°55.96 2.8 8 6 102180 42
2010-10-18 06:47:32 51°13.663 2°55.959 4.4 12 6 102180 41
2010-10-18 06:47:37 51°13.663 2°55.959 3.7 21 6 102180 41
2010-10-18 06:47:42 51°13.663 2°55.959 3 12 6 102180 41
2010-10-18 06:47:47 51°13.663 2°55.959 3.3 19 6 102180 41
2010-10-18 06:47:52 51°13.663 2°55.959 2.9 20 6 102180 41
2010-10-18 06:47:57 51°13.663 2°55.959 3.5 15 6 102180 41
2010-10-18 06:48:02 51°13.663 2°55.959 2.9 15 6 102180 40
2010-10-18 06:48:07 51°13.663 2°55.959 2.6 19 6 102180 40
2010-10-18 06:48:12 51°13.663 2°55.959 2.6 10 6 102180 41
2010-10-18 06:48:17 51°13.663 2°55.959 3.7 15 6 102180 41
2010-10-18 06:48:22 51°13.663 2°55.959 3.6 13 6 102180 40
2010-10-18 06:48:27 51°13.663 2°55.959 2.2 11 6 102180 40
2010-10-18 06:48:32 51°13.663 2°55.959 2.7 6 6 102180 41
2010-10-18 06:48:35 51°13.663 2°55.959 2.6 9 6 102180 41
2010-10-18 06:48:42 51°13.663 2°55.96 2.6 9 6 102180 41
2010-10-18 06:48:47 51°13.663 2°55.96 2.6 9 6 102180 41
2010-10-18 06:48:53 51°13.663 2°55.96 2.6 9 6 102180 41
2010-10-18 06:48:57 51°13.662 2°55.96 2.6 9 6 102180 41
2010-10-18 06:49:02 51°13.662 2°55.96 2.6 9 -999 -999 -999
2010-10-18 06:49:07 51°13.662 2°55.96 -999 -999 -999 -999 -999
2010-10-18 06:49:12 51°13.662 2°55.96 -999 -999 -999 -999 -999
2010-10-18 06:49:17 51°13.662 2°55.96 -999 -999 -999 -999 -999
2010-10-18 06:49:22 51°13.662 2°55.96 3 9 -999 -999 -999
2010-10-18 06:49:27 51°13.662 2°55.96 2.6 15 -999 -999 -999
2010-10-18 06:49:32 51°13.662 2°55.96 3.1 14 -999 -999 -999
2010-10-18 06:49:37 51°13.662 2°55.96 3.4 13 -999 -999 -999
2010-10-18 06:49:41 51°13.662 2°55.96 3.2 11 5.9 -999 26
2010-10-18 06:49:46 51°13.662 2°55.96 2.8 8 5.9 -999 26
2010-10-18 06:49:51 51°13.662 2°55.96 3 17 6 -999 42
2010-10-18 06:49:56 51°13.662 2°55.96 3 6 6 -999 42
2010-10-18 06:50:01 51°13.662 2°55.96 2.2 13 6 102180 40
2010-10-18 06:50:05 51°13.662 2°55.96 1.9 10 6 102180 40
2010-10-18 06:50:10 51°13.662 2°55.96 2.2 7 6 102180 41
2010-10-18 06:50:15 51°13.662 2°55.96 3.3 34 6 102180 41
2010-10-18 06:50:20 51°13.662 2°55.96 2.5 3 6 102180 41
2010-10-18 06:50:25 51°13.662 2°55.96 2.2 31 6 102180 41
2010-10-18 06:50:29 51°13.662 2°55.96 2.6 21 6 102180 41
2010-10-18 06:50:34 51°13.662 2°55.96 3.3 25 6 102180 41
2010-10-18 06:50:39 51°13.662 2°55.96 1.5 25 6 102190 41
2010-10-18 06:50:44 51°13.662 2°55.96 1.7 8 6 102190 41
2010-10-18 06:50:49 51°13.662 2°55.96 1.8 19 6 102190 41
2010-10-18 06:50:54 51°13.662 2°55.96 1.9 7 6 102190 41
2010-10-18 06:50:59 51°13.662 2°55.96 1.7 27 6 102190 42
2010-10-18 06:51:04 51°13.662 2°55.96 2.1 20 6 102190 42
2010-10-18 06:51:09 51°13.662 2°55.96 2.6 17 6 102190 40
2010-10-18 06:51:15 51°13.662 2°55.96 1.5 1 6 102190 40
2010-10-18 06:51:21 51°13.662 2°55.96 2.5 357 6 102180 41
2010-10-18 06:51:25 51°13.662 2°55.96 1.4 11 6 102180 41
2010-10-18 06:51:30 51°13.662 2°55.96 1.5 1 6 102190 41
2010-10-18 06:51:35 51°13.662 2°55.96 2.6 5 6 102190 41
2010-10-18 06:51:41 51°13.663 2°55.96 3.2 20 6 102190 43
2010-10-18 06:51:45 51°13.663 2°55.96 2.5 11 6 102190 43
2010-10-18 06:51:50 51°13.663 2°55.96 2.6 19 6 102190 41
2010-10-18 06:51:55 51°13.663 2°55.96 2.5 15 6 102190 41
2010-10-18 06:52:00 51°13.663 2°55.96 2.2 24 6 102190 43
2010-10-18 06:52:05 51°13.663 2°55.96 2.1 35 6 102190 43
2010-10-18 06:52:09 51°13.663 2°55.96 2 28 6 102190 42
2010-10-18 06:52:14 51°13.662 2°55.96 1.3 16 6 102190 42
2010-10-18 06:52:19 51°13.663 2°55.96 2 13 6 102180 43
2010-10-18 06:52:24 51°13.663 2°55.96 2.4 21 6 102180 43
2010-10-18 06:52:29 51°13.663 2°55.96 2.7 12 6 102190 41
2010-10-18 06:52:33 51°13.663 2°55.96 3.6 8 6 102190 41
2010-10-18 06:52:38 51°13.663 2°55.96 2.1 9 6 102190 40
2010-10-18 06:52:44 51°13.663 2°55.96 1.9 13 6 102190 40
2010-10-18 06:52:49 51°13.663 2°55.96 2.6 26 6 102190 42
2010-10-18 06:52:53 51°13.663 2°55.96 2.8 18 6 102190 42
2010-10-18 06:52:58 51°13.663 2°55.96 2.7 22 6 102190 41
2010-10-18 06:53:03 51°13.663 2°55.96 3 11 6 102190 41
2010-10-18 06:53:09 51°13.663 2°55.96 2.9 22 6 102190 41
2010-10-18 06:53:14 51°13.663 2°55.96 3.3 8 6 102190 41
2010-10-18 06:53:18 51°13.663 2°55.96 3.7 18 6 102190 42
2010-10-18 06:53:24 51°13.663 2°55.961 3.3 12 6 102190 42
2010-10-18 06:53:29 51°13.663 2°55.96 4.1 15 6 102190 41
2010-10-18 06:53:33 51°13.663 2°55.961 2.2 9 6 102190 41
2010-10-18 06:53:38 51°13.663 2°55.961 2.3 8 6 102190 42
2010-10-18 06:53:44 51°13.663 2°55.961 1.4 5 6 102190 42
2010-10-18 06:53:48 51°13.663 2°55.961 2.1 16 6 102190 41
2010-10-18 06:53:53 51°13.663 2°55.961 2.7 359 6 102190 41
2010-10-18 06:53:58 51°13.663 2°55.961 3.5 6 6 102190 41
2010-10-18 06:54:03 51°13.663 2°55.961 3.8 2 6 102190 41
2010-10-18 06:54:08 51°13.663 2°55.961 3.4 12 6 102190 41
2010-10-18 06:54:13 51°13.663 2°55.961 2.8 16 6 102190 41
2010-10-18 06:54:18 51°13.663 2°55.961 2.5 10 6 102190 42
2010-10-18 06:54:23 51°13.663 2°55.961 1.8 5 6 102190 42
2010-10-18 06:54:28 51°13.663 2°55.961 3.4 10 6 102190 41
2010-10-18 06:54:33 51°13.663 2°55.961 3.2 18 6 102190 41
2010-10-18 06:54:39 51°13.663 2°55.961 3.5 15 6 102190 41
2010-10-18 06:54:43 51°13.663 2°55.961 3 17 6 102190 41
2010-10-18 06:54:48 51°13.663 2°55.961 3.2 11 6 102190 41
2010-10-18 06:54:54 51°13.663 2°55.961 3.6 6 6 102190 41
2010-10-18 06:54:58 51°13.663 2°55.961 2.7 10 6 102190 43
2010-10-18 06:55:03 51°13.663 2°55.961 2.1 21 6 102190 43
2010-10-18 06:55:09 51°13.663 2°55.961 2.2 9 6 102190 41
2010-10-18 06:55:14 51°13.663 2°55.961 2.3 20 6 102190 41
2010-10-18 06:55:18 51°13.663 2°55.961 2.5 12 6 102190 39
2010-10-18 06:55:23 51°13.663 2°55.961 3.6 4 6 102190 39
2010-10-18 06:55:28 51°13.663 2°55.961 2.7 10 6 102190 43
2010-10-18 06:55:34 51°13.663 2°55.961 1.8 6 6 102190 43
2010-10-18 06:55:38 51°13.664 2°55.961 2.6 13 6 102190 41
2010-10-18 06:55:44 51°13.664 2°55.961 2.7 19 6 102190 41
2010-10-18 06:55:50 51°13.664 2°55.961 2.3 22 6 102190 41
2010-10-18 06:55:54 51°13.663 2°55.961 2.2 22 6 102190 41
2010-10-18 06:55:59 51°13.663 2°55.961 3.1 14 6 102190 41
2010-10-18 06:56:04 51°13.663 2°55.961 2.4 6 6 102190 41
2010-10-18 06:56:09 51°13.663 2°55.961 3.3 5 6 102190 43
2010-10-18 06:56:14 51°13.663 2°55.961 3.4 11 6 102190 43
2010-10-18 06:56:18 51°13.663 2°55.961 2.9 8 6 102190 42
2010-10-18 06:56:24 51°13.663 2°55.961 2.5 19 6 102190 42
2010-10-18 06:56:28 51°13.663 2°55.961 2.9 24 6 102190 41
2010-10-18 06:56:34 51°13.663 2°55.96 2.5 25 6 102190 41
2010-10-18 06:56:38 51°13.663 2°55.96 2.1 24 6 102190 41
2010-10-18 06:56:43 51°13.663 2°55.961 2 8 6 102190 41
2010-10-18 06:56:49 51°13.663 2°55.961 2.3 13 6 102190 43
2010-10-18 06:56:54 51°13.663 2°55.961 2.5 21 6 102190 43
2010-10-18 06:56:58 51°13.663 2°55.961 2.1 12 6 102190 41
2010-10-18 06:57:04 51°13.663 2°55.961 2.3 19 6 102190 41
2010-10-18 06:57:09 51°13.662 2°55.961 2.4 7 6 102190 40
2010-10-18 06:57:14 51°13.662 2°55.961 4.3 8 6 102190 40
2010-10-18 06:57:18 51°13.662 2°55.962 3.8 11 6.1 102190 42
2010-10-18 06:57:23 51°13.662 2°55.962 3.8 13 6.1 102190 42
2010-10-18 06:57:29 51°13.662 2°55.962 3.8 13 6.1 102190 42
2010-10-18 06:57:34 51°13.662 2°55.962 3.8 8 6.1 102190 42
2010-10-18 06:57:38 51°13.662 2°55.962 3.5 10 6.1 102190 41
2010-10-18 06:57:44 51°13.662 2°55.962 3.9 18 6.1 102190 41
2010-10-18 06:57:49 51°13.662 2°55.962 3.6 14 6.1 102190 41
2010-10-18 06:57:54 51°13.662 2°55.962 3.9 12 6.1 102190 41
2010-10-18 06:57:58 51°13.662 2°55.962 3.2 20 6.1 102190 39
2010-10-18 06:58:03 51°13.662 2°55.96 3.1 15 6.1 102190 39
2010-10-18 06:58:09 51°13.662 2°55.96 2.3 15 6.1 102190 42
2010-10-18 06:58:14 51°13.662 2°55.961 2.2 4 6.1 102190 42
2010-10-18 06:58:18 51°13.662 2°55.961 2 16 6.1 102190 40
2010-10-18 06:58:23 51°13.662 2°55.961 3.9 11 6.1 102190 40
2010-10-18 06:58:29 51°13.662 2°55.961 3.4 4 6.1 102190 41
2010-10-18 06:58:34 51°13.662 2°55.961 4.2 10 6.1 102190 41
2010-10-18 06:58:38 51°13.662 2°55.961 3.8 20 6.1 102190 42
2010-10-18 06:58:44 51°13.662 2°55.962 2.8 21 6.1 102190 42
2010-10-18 06:58:49 51°13.662 2°55.961 2.8 14 6.1 102190 41
2010-10-18 06:58:54 51°13.661 2°55.962 3.2 15 6.1 102190 41
2010-10-18 06:58:58 51°13.661 2°55.961 2.8 17 6.1 102190 41
2010-10-18 06:59:03 51°13.661 2°55.961 2.5 29 6.1 102190 41
2010-10-18 06:59:09 51°13.661 2°55.961 2.3 22 6.1 102190 41
2010-10-18 06:59:14 51°13.661 2°55.961 3 17 6.1 102190 41
2010-10-18 06:59:18 51°13.661 2°55.961 2.9 21 6.1 102190 41
2010-10-18 06:59:24 51°13.661 2°55.961 3.4 16 6.1 102190 41
2010-10-18 06:59:29 51°13.661 2°55.961 2.6 16 6.1 102190 43
2010-10-18 06:59:34 51°13.661 2°55.961 2.4 15 6.1 102190 43
2010-10-18 06:59:38 51°13.661 2°55.961 2.2 5 6.1 102190 43
2010-10-18 06:59:43 51°13.661 2°55.961 3.2 346 6.1 102190 43
2010-10-18 06:59:49 51°13.661 2°55.962 1.3 22 6.1 102190 42
2010-10-18 06:59:54 51°13.661 2°55.962 2.6 7 6.1 102190 42
2010-10-18 06:59:58 51°13.661 2°55.962 3.3 12 6.1 102180 41
2010-10-18 07:00:04 51°13.661 2°55.962 3.3 10 6.1 102180 41
2010-10-18 07:00:08 51°13.661 2°55.962 2.8 11 6.1 102190 40
2010-10-18 07:00:14 51°13.661 2°55.962 2.2 17 6.1 102190 40
2010-10-18 07:00:18 51°13.661 2°55.962 2.5 19 6.1 102190 41
2010-10-18 07:00:23 51°13.661 2°55.962 2.8 17 6.1 102190 41
2010-10-18 07:00:28 51°13.661 2°55.962 2.5 18 6.1 102190 43
2010-10-18 07:00:34 51°13.661 2°55.962 2.7 31 6.1 102190 43
2010-10-18 07:00:38 51°13.661 2°55.962 2.6 19 6.1 102190 42
2010-10-18 07:00:43 51°13.66 2°55.962 2.6 7 6.1 102190 42
2010-10-18 07:00:49 51°13.66 2°55.962 2.6 7 6.1 102190 41
2010-10-18 07:00:54 51°13.66 2°55.962 2.5 11 6.1 102190 41
2010-10-18 07:00:58 51°13.66 2°55.962 2.3 19 6.1 102190 41
2010-10-18 07:01:04 51°13.66 2°55.962 2.8 10 6.1 102190 41
2010-10-18 07:01:09 51°13.66 2°55.962 2.7 19 6.2 102190 41
2010-10-18 07:01:14 51°13.66 2°55.961 2.6 18 6.2 102190 41
2010-10-18 07:01:18 51°13.66 2°55.961 1.8 13 6.1 102190 41
2010-10-18 07:01:23 51°13.66 2°55.961 2.9 33 6.1 102190 41
2010-10-18 07:01:28 51°13.66 2°55.96 2.8 32 6.1 102190 42
2010-10-18 07:01:34 51°13.661 2°55.958 3 24 6.1 102190 42
2010-10-18 07:01:38 51°13.662 2°55.956 3.7 19 6.2 102190 42
2010-10-18 07:01:43 51°13.662 2°55.953 2.8 24 6.2 102190 42
2010-10-18 07:01:49 51°13.664 2°55.948 3.1 26 6.1 102190 42
2010-10-18 07:01:54 51°13.666 2°55.943 2.8 23 6.1 102190 42
2010-10-18 07:02:00 51°13.668 2°55.935 2.5 43 6.1 102190 42
2010-10-18 07:02:06 51°13.671 2°55.926 2.3 35 6.1 102190 42
2010-10-18 07:02:11 51°13.673 2°55.918 2.2 39 6.1 102180 42
2010-10-18 07:02:17 51°13.675 2°55.907 2.3 38 6.1 102180 42
2010-10-18 07:02:22 51°13.677 2°55.898 2.3 32 6.2 102190 41
2010-10-18 07:02:27 51°13.678 2°55.889 3.1 37 6.2 102190 41
2010-10-18 07:02:32 51°13.679 2°55.879 3.9 42 6.2 102190 41
2010-10-18 07:02:37 51°13.68 2°55.869 5.6 35 6.2 102190 41
2010-10-18 07:02:42 51°13.683 2°55.859 4 35 6.2 102190 43
2010-10-18 07:02:47 51°13.686 2°55.85 4.6 32 6.2 102190 43
2010-10-18 07:02:52 51°13.687 2°55.841 3.8 35 6.2 102180 41
2010-10-18 07:02:57 51°13.688 2°55.832 2.6 32 6.2 102180 41
2010-10-18 07:03:02 51°13.689 2°55.823 3.4 43 6.2 102190 41
2010-10-18 07:03:05 51°13.69 2°55.818 2 34 6.2 102190 41
2010-10-18 07:03:12 51°13.691 2°55.805 2.7 43 6.2 102190 43
2010-10-18 07:03:17 51°13.694 2°55.795 2.9 37 6.2 102190 43
2010-10-18 07:03:22 51°13.696 2°55.786 3.2 30 6.2 102180 40
2010-10-18 07:03:27 51°13.696 2°55.779 2.6 33 6.2 102180 40
2010-10-18 07:03:32 51°13.696 2°55.772 3.2 39 6.2 102190 43
2010-10-18 07:03:37 51°13.696 2°55.765 2.2 36 6.2 102190 43
2010-10-18 07:03:42 51°13.696 2°55.759 4.8 75 6.3 102190 43
2010-10-18 07:03:47 51°13.696 2°55.753 4.2 31 6.3 102190 43
2010-10-18 07:03:52 51°13.696 2°55.748 4.6 43 6.3 102190 43
2010-10-18 07:03:57 51°13.696 2°55.745 4.4 34 6.3 102190 43
2010-10-18 07:04:02 51°13.697 2°55.743 4.6 43 6.3 102180 42
2010-10-18 07:04:06 51°13.697 2°55.742 3.1 41 6.3 102180 42
2010-10-18 07:04:11 51°13.697 2°55.74 3.2 28 6.3 102180 42
2010-10-18 07:04:16 51°13.698 2°55.739 2.5 44 6.3 102180 42
2010-10-18 07:04:21 51°13.698 2°55.739 2.6 39 6.2 102180 40
2010-10-18 07:04:25 51°13.698 2°55.739 2.2 24 6.3 102190 41
2010-10-18 07:04:25 51°13.698 2°55.739 2.2 42 6.2 102180 40
2010-10-18 07:04:36 51°13.7 2°55.737 2.2 36 6.3 102190 41
2010-10-18 07:04:40 51°13.702 2°55.737 2.1 80 6.3 102190 40
2010-10-18 07:04:46 51°13.703 2°55.738 1 32 6.3 102190 40
2010-10-18 07:04:50 51°13.705 2°55.739 0.8 26 6.2 102190 41
2010-10-18 07:04:55 51°13.706 2°55.74 1.8 32 6.2 102190 41
2010-10-18 07:05:00 51°13.708 2°55.742 2.3 75 6.2 102190 42
2010-10-18 07:05:05 51°13.71 2°55.743 2.3 37 6.2 102190 42
2010-10-18 07:05:10 51°13.713 2°55.743 1.7 22 6.3 102190 41
2010-10-18 07:05:14 51°13.715 2°55.744 0.2 38 6.3 102190 41
2010-10-18 07:05:19 51°13.718 2°55.744 1.1 73 6.3 102190 41
2010-10-18 07:05:24 51°13.721 2°55.743 3.1 35 6.3 102190 41
2010-10-18 07:05:29 51°13.724 2°55.742 2.7 270 6.3 102190 42
2010-10-18 07:05:34 51°13.728 2°55.74 2.1 260 6.3 102190 42
2010-10-18 07:05:38 51°13.731 2°55.738 2.6 267 6.3 102190 42
2010-10-18 07:05:43 51°13.734 2°55.735 1.8 264 6.3 102190 42
2010-10-18 07:05:49 51°13.739 2°55.73 2.9 260 6.3 102190 42
2010-10-18 07:05:54 51°13.744 2°55.725 2.9 258 6.3 102190 42
2010-10-18 07:05:58 51°13.748 2°55.72 3.1 18 6.3 102190 40
2010-10-18 07:05:58 51°13.748 2°55.72 3.8 287 6.3 102190 40
2010-10-18 07:05:58 51°13.748 2°55.72 2.9 36 6.3 102190 41
2010-10-18 07:05:58 51°13.748 2°55.72 2.5 19 6.3 102190 41
2010-10-18 07:05:58 51°13.748 2°55.72 2.1 38 6.3 102190 41
2010-10-18 07:05:58 51°13.748 2°55.72 1.7 251 6.3 102190 40
2010-10-18 07:05:58 51°13.748 2°55.72 2 239 6.3 102190 40
2010-10-18 07:05:58 51°13.748 2°55.72 2.9 280 6.3 102190 41
2010-10-18 07:05:58 51°13.748 2°55.72 1.6 287 6.3 102190 41
2010-10-18 07:05:58 51°13.748 2°55.72 3.3 286 6.3 102190 41
2010-10-18 07:05:58 51°13.748 2°55.72 3.5 36 6.3 102190 40
2010-10-18 07:05:58 51°13.748 2°55.72 2.4 247 6.3 102190 41
2010-10-18 07:05:58 51°13.748 2°55.72 2.9 258 6.3 102190 40
2010-10-18 07:07:03 51°13.748 2°55.72 2.7 236 6.3 102190 41
2010-10-18 07:07:08 51°13.748 2°55.72 2.7 26 6.3 102190 42
2010-10-18 07:07:14 51°13.748 2°55.72 2.3 321 6.3 102190 42
2010-10-18 07:07:18 51°13.748 2°55.72 1.8 286 6.3 102190 42
2010-10-18 07:07:24 51°13.748 2°55.72 1.6 316 6.3 102190 42
2010-10-18 07:07:29 51°13.748 2°55.72 1.9 24 6.3 102180 43
2010-10-18 07:07:34 51°13.748 2°55.72 3.6 239 6.3 102180 43
2010-10-18 07:07:38 51°13.748 2°55.72 2.3 281 6.3 102190 41
2010-10-18 07:07:44 51°13.748 2°55.72 3.4 31 6.3 102190 41
2010-10-18 07:07:48 51°13.748 2°55.72 3.9 286 6.3 102190 42
2010-10-18 07:07:54 51°13.748 2°55.72 4.6 247 6.3 102190 42
2010-10-18 07:07:58 51°13.748 2°55.72 3.9 23 6.3 102190 42
2010-10-18 07:08:03 51°13.748 2°55.72 3.2 242 6.3 102190 42
2010-10-18 07:08:09 51°13.748 2°55.72 2.6 19 6.3 102190 42
2010-10-18 07:08:14 51°13.748 2°55.72 1.6 244 6.3 102190 42
2010-10-18 07:08:18 51°13.748 2°55.72 2 22 6.3 102190 41
2010-10-18 07:08:23 51°13.748 2°55.72 2.5 316 6.3 102190 41
2010-10-18 07:08:28 51°13.748 2°55.72 3.8 286 6.3 102190 40
2010-10-18 07:08:34 51°13.748 2°55.72 2.6 320 6.3 102190 40
2010-10-18 07:08:38 51°13.748 2°55.72 4.7 284 6.3 102190 39
2010-10-18 07:08:43 51°13.748 2°55.72 3.2 241 6.3 102190 39
2010-10-18 07:08:49 51°13.748 2°55.72 3.4 286 6.3 102190 41
2010-10-18 07:08:53 51°13.748 2°55.72 3.6 250 6.3 102190 41
2010-10-18 07:08:58 51°14.116 2°55.419 4.2 282 6.3 102190 42
2010-10-18 07:09:04 51°14.126 2°55.407 2 265 6.3 102190 42
2010-10-18 07:09:08 51°14.133 2°55.401 2 255 6.3 102190 40
2010-10-18 07:09:14 51°14.145 2°55.391 1.3 321 6.3 102190 40
2010-10-18 07:09:19 51°14.154 2°55.383 2.5 285 6.3 102190 40
2010-10-18 07:09:24 51°14.165 2°55.375 2.5 242 6.3 102190 40
2010-10-18 07:09:29 51°14.175 2°55.366 1.9 287 6.3 102190 42
2010-10-18 07:09:34 51°14.186 2°55.357 3.2 236 6.3 102190 42
2010-10-18 07:09:38 51°14.194 2°55.349 2.9 286 6.3 102190 40
2010-10-18 07:09:44 51°14.208 2°55.337 1.8 38 6.3 102190 40
2010-10-18 07:09:48 51°14.217 2°55.329 2 283 6.4 102180 40
2010-10-18 07:09:54 51°14.231 2°55.317 2.9 30 6.4 102180 40
2010-10-18 07:09:58 51°14.24 2°55.308 3.3 280 6.4 102180 40
2010-10-18 07:10:04 51°14.254 2°55.296 4.1 36 6.4 102180 40
2010-10-18 07:10:09 51°14.266 2°55.285 4.3 21 6.4 102180 41
2010-10-18 07:10:14 51°14.279 2°55.273 4.9 31 6.4 102180 41
2010-10-18 07:10:18 51°14.289 2°55.264 5.9 281 6.4 102180 42
2010-10-18 07:10:24 51°14.304 2°55.25 5 237 6.4 102180 42
2010-10-18 07:10:28 51°14.315 2°55.241 6.1 286 6.4 102180 40
2010-10-18 07:10:34 51°14.331 2°55.226 4.8 250 6.4 102180 40
2010-10-18 07:10:38 51°14.341 2°55.216 4.6 27 6.4 102180 41
2010-10-18 07:10:43 51°14.354 2°55.204 4 242 6.4 102180 41
2010-10-18 07:10:48 51°14.368 2°55.192 6.8 286 6.4 102170 41
2010-10-18 07:10:54 51°14.384 2°55.177 5.6 250 6.4 102170 41
2010-10-18 07:10:58 51°14.395 2°55.167 5 19 6.4 102170 42
2010-10-18 07:11:03 51°14.409 2°55.154 4.3 31 6.4 102170 42
2010-10-18 07:11:09 51°14.425 2°55.138 4.6 26 6.4 102170 42
2010-10-18 07:11:14 51°14.439 2°55.124 5.1 251 6.4 102170 42
2010-10-18 07:11:18 51°14.45 2°55.113 6.1 284 6.4 102180 39
2010-10-18 07:11:24 51°14.466 2°55.096 5.9 243 6.4 102180 39
2010-10-18 07:11:29 51°14.48 2°55.082 6 24 6.5 102180 42
2010-10-18 07:11:34 51°14.494 2°55.068 4.9 32 6.5 102180 42
2010-10-18 07:11:38 51°14.505 2°55.057 6.4 280 6.4 102170 42
2010-10-18 07:11:43 51°14.52 2°55.043 6.7 248 6.4 102170 42
2010-10-18 07:11:49 51°14.537 2°55.026 7.2 20 6.5 102170 43
2010-10-18 07:11:54 51°14.551 2°55.013 5.8 241 6.5 102170 43
2010-10-18 07:11:58 51°14.563 2°55.002 6.2 280 6.5 102170 41
2010-10-18 07:12:04 51°14.58 2°54.985 5.9 242 6.5 102170 41
2010-10-18 07:12:09 51°14.595 2°54.971 5.2 24 6.5 102170 40
2010-10-18 07:12:14 51°14.609 2°54.956 5.5 242 6.5 102170 40
2010-10-18 07:12:18 51°14.621 2°54.944 6 20 6.5 102170 42
2010-10-18 07:12:23 51°14.635 2°54.929 6 245 6.5 102170 42
2010-10-18 07:12:29 51°14.653 2°54.911 5.8 285 6.5 102170 41
2010-10-18 07:12:34 51°14.667 2°54.895 5.7 243 6.5 102170 41
2010-10-18 07:12:38 51°14.679 2°54.882 5.9 26 6.6 102170 41
2010-10-18 07:12:44 51°14.695 2°54.863 6.8 241 6.6 102170 41
2010-10-18 07:12:49 51°14.708 2°54.845 7.1 284 6.6 102170 41
2010-10-18 07:12:54 51°14.72 2°54.825 7.9 239 6.6 102170 41
2010-10-18 07:12:58 51°14.728 2°54.808 8 284 6.6 102170 43
2010-10-18 07:13:04 51°14.738 2°54.782 7.9 235 6.6 102170 43
2010-10-18 07:13:09 51°14.745 2°54.759 8.2 21 6.6 102160 42
2010-10-18 07:13:14 51°14.75 2°54.735 9.9 31 6.6 102160 42
2010-10-18 07:13:18 51°14.754 2°54.715 10.3 18 6.7 102160 42
2010-10-18 07:13:23 51°14.757 2°54.691 9 33 6.7 102160 42
2010-10-18 07:13:29 51°14.759 2°54.661 10.5 20 6.8 102150 42
2010-10-18 07:13:34 51°14.758 2°54.637 9.9 33 6.8 102150 42
2010-10-18 07:13:38 51°14.757 2°54.618 9.7 283 6.8 102160 43
2010-10-18 07:13:44 51°14.753 2°54.59 10.3 317 6.8 102160 43
2010-10-18 07:13:49 51°14.747 2°54.568 10.3 319 6.8 102140 41
2010-10-18 07:13:54 51°14.741 2°54.547 11.2 320 6.8 102140 41
2010-10-18 07:13:58 51°14.735 2°54.531 12.5 284 6.8 102150 41
2010-10-18 07:14:03 51°14.725 2°54.513 12 325 6.8 102150 41
2010-10-18 07:14:09 51°14.713 2°54.493 11.7 326 6.8 102140 42
2010-10-18 07:14:14 51°14.702 2°54.478 12.6 323 6.8 102140 42
2010-10-18 07:14:18 51°14.692 2°54.466 11.8 283 6.9 102140 43
2010-10-18 07:14:23 51°14.682 2°54.449 12.1 324 6.9 102140 43
2010-10-18 07:14:29 51°14.669 2°54.429 12 282 6.9 102140 43
2010-10-18 07:14:34 51°14.659 2°54.411 12.2 326 6.9 102140 43
2010-10-18 07:14:38 51°14.651 2°54.396 11.9 281 6.9 102140 42
2010-10-18 07:14:44 51°14.64 2°54.373 12.3 321 6.9 102140 42
2010-10-18 07:14:49 51°14.63 2°54.354 11.3 282 7 102140 42
2010-10-18 07:14:54 51°14.621 2°54.334 11 321 7 102140 42
2010-10-18 07:14:58 51°14.613 2°54.319 10.9 320 7 102140 41
2010-10-18 07:15:04 51°14.602 2°54.296 11.9 322 7 102140 41
2010-10-18 07:15:09 51°14.592 2°54.276 12.8 322 7 102150 42
2010-10-18 07:15:14 51°14.582 2°54.257 11.6 322 7 102150 42
2010-10-18 07:15:18 51°14.574 2°54.241 11.9 284 7 102140 41
2010-10-18 07:15:24 51°14.563 2°54.217 12.4 322 7 102140 41
2010-10-18 07:15:28 51°14.555 2°54.202 12.4 323 7 102150 42
2010-10-18 07:15:34 51°14.544 2°54.178 11.9 324 7 102150 42
2010-10-18 07:15:38 51°14.536 2°54.162 11.3 323 7.1 102140 43
2010-10-18 07:15:43 51°14.526 2°54.143 12.6 322 7.1 102140 43
2010-10-18 07:15:49 51°14.515 2°54.119 11.2 322 7.1 102140 42
2010-10-18 07:15:54 51°14.505 2°54.099 12 324 7.1 102140 42
2010-10-18 07:15:58 51°14.498 2°54.084 11.5 282 7.1 102140 42
2010-10-18 07:16:04 51°14.486 2°54.06 11.5 323 7.1 102140 42
2010-10-18 07:16:09 51°14.476 2°54.04 12.4 324 7.1 102140 42
2010-10-18 07:16:14 51°14.466 2°54.021 12.2 325 7.1 102140 42
2010-10-18 07:16:18 51°14.458 2°54.006 12 283 7.1 102140 41
2010-10-18 07:16:23 51°14.448 2°53.986 11 325 7.1 102140 41
2010-10-18 07:16:29 51°14.437 2°53.962 11.2 325 7.1 102150 42
2010-10-18 07:16:34 51°14.427 2°53.943 11.7 324 7.1 102150 42
2010-10-18 07:16:38 51°14.42 2°53.927 10.3 284 7.1 102150 40
2010-10-18 07:16:43 51°14.41 2°53.908 11.2 325 7.1 102150 40
2010-10-18 07:16:49 51°14.398 2°53.885 10.9 286 7.1 102150 42
2010-10-18 07:16:54 51°14.388 2°53.865 12.6 326 7.1 102150 42
2010-10-18 07:16:58 51°14.38 2°53.85 12 283 7.2 102140 42
2010-10-18 07:17:04 51°14.368 2°53.827 12.2 322 7.2 102140 42
2010-10-18 07:17:09 51°14.358 2°53.807 11.8 321 7.2 102150 43
2010-10-18 07:17:14 51°14.348 2°53.788 12.1 322 7.2 102150 43
2010-10-18 07:17:18 51°14.34 2°53.773 12.3 322 7.2 102150 42
2010-10-18 07:17:23 51°14.331 2°53.753 11.4 325 7.2 102150 42
2010-10-18 07:17:29 51°14.319 2°53.73 10.8 284 7.2 102150 41
2010-10-18 07:17:34 51°14.309 2°53.71 10.6 322 7.2 102150 41
2010-10-18 07:17:38 51°14.301 2°53.695 11.3 279 7.2 102140 41
2010-10-18 07:17:44 51°14.289 2°53.671 10.4 325 7.2 102140 41
2010-10-18 07:17:48 51°14.281 2°53.656 11.8 325 7.2 102150 42
2010-10-18 07:17:54 51°14.269 2°53.632 11.1 324 7.2 102150 42
2010-10-18 07:17:58 51°14.261 2°53.617 10.3 323 7.2 102150 41
2010-10-18 07:18:03 51°14.251 2°53.597 12 323 7.2 102150 41
2010-10-18 07:18:09 51°14.239 2°53.574 11.7 321 7.2 102140 42
2010-10-18 07:18:14 51°14.229 2°53.555 12.5 323 7.2 102140 42
2010-10-18 07:18:18 51°14.221 2°53.539 11.2 282 7.2 102150 42
2010-10-18 07:18:23 51°14.212 2°53.519 12 322 7.2 102150 42
2010-10-18 07:18:29 51°14.199 2°53.496 11.8 322 7.2 102140 41
2010-10-18 07:18:34 51°14.19 2°53.476 12.8 322 7.2 102140 41
2010-10-18 07:18:38 51°14.181 2°53.461 11.1 284 7.2 102150 41
2010-10-18 07:18:44 51°14.17 2°53.438 11.2 324 7.2 102150 41
2010-10-18 07:18:49 51°14.16 2°53.418 12.4 324 7.1 102140 41
2010-10-18 07:18:54 51°14.15 2°53.398 11.3 322 7.1 102140 41
2010-10-18 07:18:58 51°14.142 2°53.383 11.3 321 7.1 102140 42
2010-10-18 07:19:03 51°14.132 2°53.364 11.3 323 7.1 102140 42
2010-10-18 07:19:09 51°14.12 2°53.34 11.3 324 7.1 102140 41
2010-10-18 07:19:14 51°14.11 2°53.321 12 323 7.1 102140 41
2010-10-18 07:19:18 51°14.103 2°53.304 11.3 281 7.1 102150 40
2010-10-18 07:19:24 51°14.092 2°53.28 9.7 322 7.1 102150 40
2010-10-18 07:19:29 51°14.083 2°53.26 11.4 283 7 102150 42
2010-10-18 07:19:34 51°14.074 2°53.239 11.3 324 7 102150 42
2010-10-18 07:19:38 51°14.067 2°53.222 10.3 324 7 102150 41
2010-10-18 07:19:43 51°14.058 2°53.201 11.2 321 7 102150 41
2010-10-18 07:19:49 51°14.047 2°53.176 10.2 282 7 102150 42
2010-10-18 07:19:54 51°14.038 2°53.156 11.8 323 7 102150 42
2010-10-18 07:19:58 51°14.031 2°53.139 11.9 286 7 102150 42
2010-10-18 07:20:04 51°14.021 2°53.114 10.3 323 7 102150 42
2010-10-18 07:20:09 51°14.013 2°53.092 11.2 322 7 102150 42
2010-10-18 07:20:14 51°14.004 2°53.071 11.6 322 7 102150 42
2010-10-18 07:20:18 51°13.997 2°53.055 11.1 322 7 102140 41
2010-10-18 07:20:23 51°13.988 2°53.034 11.7 322 7 102140 41
2010-10-18 07:20:29 51°13.978 2°53.009 11.4 323 7 102150 42
2010-10-18 07:20:34 51°13.968 2°52.988 11.2 323 7 102150 42
2010-10-18 07:20:38 51°13.962 2°52.971 10.6 282 7 102140 42
2010-10-18 07:20:43 51°13.953 2°52.95 10.3 323 7 102140 42
2010-10-18 07:20:49 51°13.942 2°52.925 10.5 321 7 102150 42
2010-10-18 07:20:54 51°13.933 2°52.904 12.2 322 7 102150 42
2010-10-18 07:20:58 51°13.926 2°52.887 11.6 279 7 102150 41
2010-10-18 07:21:04 51°13.915 2°52.862 11.7 324 7 102150 41
2010-10-18 07:21:09 51°13.906 2°52.842 11.1 324 7 102140 41
2010-10-18 07:21:14 51°13.898 2°52.821 10.8 323 7 102140 41
2010-10-18 07:21:18 51°13.891 2°52.804 10.7 322 7 102140 42
2010-10-18 07:21:23 51°13.882 2°52.783 10.7 322 7 102140 42
2010-10-18 07:21:29 51°13.871 2°52.758 10.1 280 6.9 102140 41
2010-10-18 07:21:34 51°13.862 2°52.737 10.8 321 6.9 102140 41
2010-10-18 07:21:38 51°13.855 2°52.72 11.3 284 6.9 102150 42
2010-10-18 07:21:44 51°13.845 2°52.695 10.5 321 6.9 102150 42
2010-10-18 07:21:49 51°13.837 2°52.673 11.3 284 7 102150 43
2010-10-18 07:21:54 51°13.829 2°52.651 11.3 319 7 102150 43
2010-10-18 07:21:58 51°13.823 2°52.633 10.8 320 6.9 102150 42
2010-10-18 07:22:03 51°13.815 2°52.611 10.5 320 6.9 102150 42
2010-10-18 07:22:09 51°13.806 2°52.585 10.8 322 6.9 102150 41
2010-10-18 07:22:14 51°13.798 2°52.563 10.8 321 6.9 102150 41
2010-10-18 07:22:18 51°13.791 2°52.546 10.2 322 6.9 102150 43
2010-10-18 07:22:23 51°13.784 2°52.524 9.8 320 6.9 102150 43
2010-10-18 07:22:29 51°13.773 2°52.498 10.8 320 6.9 102150 42
2010-10-18 07:22:34 51°13.765 2°52.476 11.5 323 6.9 102150 42
2010-10-18 07:22:38 51°13.759 2°52.458 12 280 6.9 102150 42
2010-10-18 07:22:44 51°13.75 2°52.431 11.2 320 6.9 102150 42
2010-10-18 07:22:49 51°13.742 2°52.41 11.7 322 6.9 102140 43
2010-10-18 07:22:54 51°13.734 2°52.388 11.7 320 6.9 102140 43
2010-10-18 07:22:58 51°13.728 2°52.37 11 285 6.9 102150 43
2010-10-18 07:23:03 51°13.721 2°52.35 9.8 319 6.9 102150 43
2010-10-18 07:23:09 51°13.713 2°52.327 10.2 319 6.9 102140 42
2010-10-18 07:23:14 51°13.706 2°52.31 9.5 317 6.9 102140 42
2010-10-18 07:23:18 51°13.702 2°52.297 9.6 285 6.9 102140 42
2010-10-18 07:23:24 51°13.695 2°52.28 9.6 320 6.9 102140 42
2010-10-18 07:23:29 51°13.689 2°52.266 8.2 317 6.8 102150 42
2010-10-18 07:23:34 51°13.684 2°52.254 7.9 320 6.8 102150 42
2010-10-18 07:23:38 51°13.68 2°52.245 8.4 319 6.9 102150 42
2010-10-18 07:23:43 51°13.675 2°52.235 8.3 322 6.9 102150 42
2010-10-18 07:23:49 51°13.67 2°52.224 8.3 283 6.9 102150 42
2010-10-18 07:23:54 51°13.665 2°52.215 7.8 319 6.9 102150 42
2010-10-18 07:23:58 51°13.662 2°52.208 7.8 285 6.9 102160 42
2010-10-18 07:24:04 51°13.656 2°52.199 7.6 318 6.9 102160 42
2010-10-18 07:24:09 51°13.652 2°52.19 6.8 318 6.9 102160 43
2010-10-18 07:24:14 51°13.648 2°52.182 8.3 315 6.9 102160 43
2010-10-18 07:24:18 51°13.645 2°52.175 8.2 316 6.9 102160 42
2010-10-18 07:24:23 51°13.641 2°52.166 8.2 37 6.9 102160 42
2010-10-18 07:24:29 51°13.638 2°52.154 7.3 285 6.9 102160 43
2010-10-18 07:24:34 51°13.635 2°52.144 7.2 34 6.9 102160 43
2010-10-18 07:24:38 51°13.633 2°52.135 8.4 20 6.9 102160 41
2010-10-18 07:24:43 51°13.631 2°52.124 7.2 32 6.9 102160 41
2010-10-18 07:24:49 51°13.628 2°52.11 7.5 26 6.9 102150 43
2010-10-18 07:24:54 51°13.625 2°52.099 7.5 34 6.9 102150 43
2010-10-18 07:24:58 51°13.623 2°52.089 8.2 278 6.9 102160 44
2010-10-18 07:25:04 51°13.619 2°52.075 8.3 316 6.9 102160 44
2010-10-18 07:25:09 51°13.616 2°52.063 9.7 316 6.9 102150 43
2010-10-18 07:25:14 51°13.613 2°52.051 7.5 37 6.9 102150 43
2010-10-18 07:25:18 51°13.61 2°52.041 9.1 284 6.9 102160 42
2010-10-18 07:25:23 51°13.606 2°52.029 8.2 318 6.9 102160 42
2010-10-18 07:25:29 51°13.602 2°52.014 8.3 317 6.9 102150 43
2010-10-18 07:25:34 51°13.597 2°52.001 7.6 315 6.9 102150 43
2010-10-18 07:25:38 51°13.594 2°51.99 8.6 284 6.9 102150 43
2010-10-18 07:25:44 51°13.59 2°51.975 8.6 33 6.9 102150 43
2010-10-18 07:25:49 51°13.586 2°51.961 8.8 316 6.9 102150 42
2010-10-18 07:25:54 51°13.582 2°51.947 9.1 317 6.9 102150 42
2010-10-18 07:25:58 51°13.579 2°51.936 7.5 24 6.8 102150 43
2010-10-18 07:26:03 51°13.576 2°51.922 9.6 33 6.8 102150 43
2010-10-18 07:26:09 51°13.572 2°51.905 9.4 22 6.9 102150 42
2010-10-18 07:26:14 51°13.569 2°51.89 8.8 34 6.9 102150 42
2010-10-18 07:26:18 51°13.566 2°51.879 9.1 24 6.9 102150 43
2010-10-18 07:26:23 51°13.563 2°51.864 7.7 30 6.9 102150 43
2010-10-18 07:26:29 51°13.559 2°51.847 7.8 283 6.9 102160 42
2010-10-18 07:26:34 51°13.555 2°51.832 7.7 317 6.9 102160 42
2010-10-18 07:26:38 51°13.552 2°51.82 8.8 280 6.8 102150 42
2010-10-18 07:26:44 51°13.548 2°51.803 8.2 33 6.8 102150 42
2010-10-18 07:26:49 51°13.545 2°51.789 7.9 20 6.8 102150 43
2010-10-18 07:26:54 51°13.541 2°51.774 8.7 317 6.8 102150 43
2010-10-18 07:26:58 51°13.538 2°51.762 8.7 285 6.8 102150 42
2010-10-18 07:27:03 51°13.535 2°51.747 8.6 32 6.8 102150 42
2010-10-18 07:27:09 51°13.53 2°51.73 8.8 25 6.9 102150 43
2010-10-18 07:27:14 51°13.527 2°51.715 8.2 34 6.9 102150 43
2010-10-18 07:27:18 51°13.525 2°51.704 8.1 286 6.9 102150 42
2010-10-18 07:27:24 51°13.521 2°51.688 8.2 34 6.9 102150 42
2010-10-18 07:27:29 51°13.518 2°51.675 7.8 21 6.8 102150 42
2010-10-18 07:27:34 51°13.516 2°51.662 7.7 37 6.8 102150 42
2010-10-18 07:27:38 51°13.514 2°51.653 7.5 277 6.8 102150 42
2010-10-18 07:27:43 51°13.512 2°51.641 7.5 34 6.8 102150 42
2010-10-18 07:27:49 51°13.509 2°51.627 7.6 20 6.8 102150 43
2010-10-18 07:27:54 51°13.508 2°51.617 7 31 6.8 102150 43
2010-10-18 07:27:58 51°13.507 2°51.608 6.6 281 6.8 102160 42
2010-10-18 07:28:04 51°13.505 2°51.597 6.5 232 6.8 102160 42
2010-10-18 07:28:09 51°13.503 2°51.587 6.6 22 6.8 102160 42
2010-10-18 07:28:14 51°13.502 2°51.578 8.3 34 6.8 102160 42
2010-10-18 07:28:18 51°13.501 2°51.57 6.7 26 6.8 102160 42
2010-10-18 07:28:23 51°13.499 2°51.562 6.9 35 6.8 102160 42
2010-10-18 07:28:29 51°13.497 2°51.552 6.7 284 6.8 102160 44
2010-10-18 07:28:34 51°13.496 2°51.544 6.2 236 6.8 102160 44
2010-10-18 07:28:38 51°13.495 2°51.537 6.4 22 6.8 102160 44
2010-10-18 07:28:43 51°13.493 2°51.53 6.8 31 6.8 102160 44
2010-10-18 07:28:49 51°13.492 2°51.521 6.5 285 6.8 102150 44
2010-10-18 07:28:54 51°13.49 2°51.515 7.3 39 6.8 102150 44
2010-10-18 07:28:58 51°13.488 2°51.51 6.4 286 6.8 102160 43
2010-10-18 07:29:04 51°13.486 2°51.503 6.8 318 6.8 102160 43
2010-10-18 07:29:09 51°13.484 2°51.498 5.8 318 6.8 102160 44
2010-10-18 07:29:14 51°13.481 2°51.494 6.7 322 6.8 102160 44
2010-10-18 07:29:18 51°13.479 2°51.491 6.1 283 6.8 102160 43
2010-10-18 07:29:23 51°13.476 2°51.487 6.8 324 6.8 102160 43
2010-10-18 07:29:29 51°13.473 2°51.484 6.4 322 6.8 102160 42
2010-10-18 07:29:34 51°13.469 2°51.482 6.3 328 6.8 102160 42
2010-10-18 07:29:38 51°13.467 2°51.481 7.4 284 6.8 102160 43
2010-10-18 07:29:44 51°13.463 2°51.48 6.3 332 6.8 102160 43
2010-10-18 07:29:49 51°13.459 2°51.48 6.4 332 6.8 102160 43
2010-10-18 07:29:54 51°13.455 2°51.48 5.9 335 6.8 102160 43
2010-10-18 07:29:58 51°13.451 2°51.481 7.5 284 6.8 102160 41
2010-10-18 07:30:03 51°13.447 2°51.482 6.1 342 6.8 102160 41
2010-10-18 07:30:09 51°13.441 2°51.483 7.5 332 6.8 102170 43
2010-10-18 07:30:14 51°13.435 2°51.485 7.9 335 6.8 102170 43
2010-10-18 07:30:18 51°13.431 2°51.486 8.5 338 6.8 102170 43
2010-10-18 07:30:23 51°13.424 2°51.488 7.1 338 6.8 102170 43
2010-10-18 07:30:29 51°13.416 2°51.49 7.7 287 6.8 102160 43
2010-10-18 07:30:34 51°13.41 2°51.491 8.2 333 6.8 102160 43
2010-10-18 07:30:38 51°13.404 2°51.492 8.2 283 6.8 102160 43
2010-10-18 07:30:44 51°13.396 2°51.492 8 334 6.8 102160 43
2010-10-18 07:30:49 51°13.39 2°51.493 7.5 281 6.8 102160 42
2010-10-18 07:30:54 51°13.384 2°51.493 6.9 333 6.8 102160 42
2010-10-18 07:30:58 51°13.379 2°51.492 7.3 330 6.8 102160 44
2010-10-18 07:31:03 51°13.373 2°51.492 7.4 332 6.8 102160 44
2010-10-18 07:31:09 51°13.366 2°51.491 7.6 330 6.8 102160 42
2010-10-18 07:31:14 51°13.361 2°51.49 6.6 330 6.8 102160 42
2010-10-18 07:31:18 51°13.358 2°51.489 6.7 279 6.7 102160 43
2010-10-18 07:31:24 51°13.352 2°51.488 6 328 6.7 102160 43
2010-10-18 07:31:29 51°13.347 2°51.486 6.5 329 6.7 102150 42
2010-10-18 07:31:34 51°13.343 2°51.485 8.2 325 6.7 102150 42
2010-10-18 07:31:38 51°13.339 2°51.483 7.7 280 6.7 102160 42
2010-10-18 07:31:43 51°13.335 2°51.481 8.8 329 6.7 102160 42
2010-10-18 07:31:49 51°13.329 2°51.479 7.3 327 6.7 102160 42
2010-10-18 07:31:54 51°13.325 2°51.476 6.4 327 6.7 102160 42
2010-10-18 07:31:58 51°13.322 2°51.474 5.6 281 6.8 102160 44
2010-10-18 07:32:04 51°13.317 2°51.471 5.4 323 6.8 102160 44
2010-10-18 07:32:09 51°13.313 2°51.468 5.7 321 6.7 102160 44
2010-10-18 07:32:14 51°13.31 2°51.464 6.8 320 6.7 102160 44
2010-10-18 07:32:18 51°13.307 2°51.462 6.4 285 6.7 102160 42
2010-10-18 07:32:23 51°13.303 2°51.459 6.4 323 6.7 102160 42
2010-10-18 07:32:29 51°13.299 2°51.454 6.7 324 6.7 102160 43
2010-10-18 07:32:34 51°13.295 2°51.451 7.4 323 6.7 102160 43
2010-10-18 07:32:38 51°13.292 2°51.448 8.3 322 6.7 102160 44
2010-10-18 07:32:43 51°13.288 2°51.445 6.1 323 6.7 102160 44
2010-10-18 07:32:49 51°13.284 2°51.441 6.4 282 6.8 102160 44
2010-10-18 07:32:54 51°13.28 2°51.438 6.7 328 6.8 102160 44
2010-10-18 07:32:58 51°13.277 2°51.435 6.3 281 6.8 102160 43
2010-10-18 07:33:04 51°13.272 2°51.432 6.7 325 6.8 102160 43
2010-10-18 07:33:09 51°13.268 2°51.429 6.6 324 6.7 102150 43
2010-10-18 07:33:14 51°13.265 2°51.426 6.4 326 6.7 102150 43
2010-10-18 07:33:18 51°13.262 2°51.424 6.5 327 6.8 102160 45
2010-10-18 07:33:23 51°13.257 2°51.422 7 326 6.8 102160 45
2010-10-18 07:33:29 51°13.253 2°51.42 6.4 326 6.8 102150 45
2010-10-18 07:33:34 51°13.249 2°51.418 6.9 330 6.8 102150 45
2010-10-18 07:33:38 51°13.245 2°51.417 6.6 284 6.7 102160 42
2010-10-18 07:33:44 51°13.24 2°51.414 6.7 327 6.7 102160 42
2010-10-18 07:33:49 51°13.236 2°51.413 6.3 326 6.7 102160 43
2010-10-18 07:33:54 51°13.231 2°51.412 7.6 331 6.7 102160 43
2010-10-18 07:33:58 51°13.228 2°51.411 6.5 280 6.7 102160 43
2010-10-18 07:34:03 51°13.224 2°51.41 6.7 330 6.7 102160 43
2010-10-18 07:34:09 51°13.219 2°51.409 6.4 332 6.7 102160 43
2010-10-18 07:34:14 51°13.215 2°51.408 6.5 328 6.7 102160 43
2010-10-18 07:34:18 51°13.212 2°51.408 6.5 285 6.7 102160 43
2010-10-18 07:34:23 51°13.208 2°51.407 7.4 329 6.7 102160 43
2010-10-18 07:34:29 51°13.203 2°51.405 6.2 329 6.7 102160 43
2010-10-18 07:34:34 51°13.199 2°51.405 6.4 328 6.7 102160 43
2010-10-18 07:34:38 51°13.196 2°51.404 6.3 285 6.7 102170 43
2010-10-18 07:34:44 51°13.191 2°51.403 6 328 6.7 102170 43
2010-10-18 07:34:49 51°13.187 2°51.402 6.6 328 6.7 102160 43
2010-10-18 07:34:54 51°13.182 2°51.401 6.4 327 6.7 102160 43
2010-10-18 07:34:58 51°13.179 2°51.4 6.7 326 6.6 102160 43
2010-10-18 07:35:03 51°13.175 2°51.399 6.9 328 6.6 102160 43
2010-10-18 07:35:09 51°13.17 2°51.398 6.6 325 6.6 102160 43
2010-10-18 07:35:14 51°13.166 2°51.397 6.8 331 6.6 102160 43
2010-10-18 07:35:18 51°13.163 2°51.396 6.9 278 6.7 102160 42
2010-10-18 07:35:24 51°13.158 2°51.394 7 333 6.7 102160 42
2010-10-18 07:35:29 51°13.155 2°51.393 6.7 278 6.6 102160 45
2010-10-18 07:35:34 51°13.15 2°51.392 6.9 330 6.6 102160 45
2010-10-18 07:35:38 51°13.147 2°51.391 6.4 329 6.6 102160 43
2010-10-18 07:35:43 51°13.143 2°51.39 6.6 326 6.6 102160 43
2010-10-18 07:35:49 51°13.138 2°51.389 5.6 282 6.6 102160 43
2010-10-18 07:35:54 51°13.134 2°51.387 7.4 329 6.6 102160 43
2010-10-18 07:35:58 51°13.131 2°51.386 6.6 282 6.6 102160 43
2010-10-18 07:36:04 51°13.126 2°51.385 7.2 329 6.6 102160 43
2010-10-18 07:36:09 51°13.122 2°51.383 7.1 329 6.6 102150 43
2010-10-18 07:36:14 51°13.118 2°51.382 6.2 330 6.6 102150 43
2010-10-18 07:36:18 51°13.115 2°51.381 6 286 6.6 102160 44
2010-10-18 07:36:23 51°13.111 2°51.38 6.4 330 6.6 102160 44
2010-10-18 07:36:29 51°13.106 2°51.379 6.7 330 6.6 102160 43
2010-10-18 07:36:34 51°13.102 2°51.377 6.7 331 6.6 102160 43
2010-10-18 07:36:38 51°13.099 2°51.376 6.8 284 6.6 102160 42
2010-10-18 07:36:43 51°13.094 2°51.376 6.8 329 6.6 102160 42
2010-10-18 07:36:49 51°13.089 2°51.374 6.4 282 6.6 102160 43
2010-10-18 07:36:54 51°13.086 2°51.373 6.6 329 6.6 102160 43
2010-10-18 07:36:58 51°13.083 2°51.372 6.8 286 6.6 102160 43
2010-10-18 07:37:04 51°13.078 2°51.371 6.4 331 6.6 102160 43
2010-10-18 07:37:09 51°13.074 2°51.37 6.6 328 6.5 102160 43
2010-10-18 07:37:14 51°13.07 2°51.368 7.2 329 6.5 102160 43
2010-10-18 07:37:18 51°13.067 2°51.368 6.9 327 6.5 102160 43
2010-10-18 07:37:23 51°13.063 2°51.366 7.4 328 6.5 102160 43
2010-10-18 07:37:29 51°13.058 2°51.365 7.3 284 6.5 102160 44
2010-10-18 07:37:34 51°13.054 2°51.363 6.8 328 6.5 102160 44
2010-10-18 07:37:38 51°13.051 2°51.362 7 284 6.5 102160 43
2010-10-18 07:37:44 51°13.046 2°51.361 5.8 330 6.5 102160 43
2010-10-18 07:37:49 51°13.042 2°51.36 6.9 281 6.5 102160 43
2010-10-18 07:37:54 51°13.038 2°51.359 7 331 6.5 102160 43
2010-10-18 07:37:58 51°13.035 2°51.358 6.8 332 6.5 102160 41
2010-10-18 07:38:03 51°13.031 2°51.357 6.8 328 6.5 102160 41
2010-10-18 07:38:09 51°13.026 2°51.356 5.9 328 6.5 102160 43
2010-10-18 07:38:14 51°13.023 2°51.355 6 325 6.5 102160 43
2010-10-18 07:38:18 51°13.019 2°51.354 7.5 284 6.5 102160 44
2010-10-18 07:38:23 51°13.016 2°51.353 6.5 326 6.5 102160 44
2010-10-18 07:38:29 51°13.011 2°51.352 6.7 323 6.6 102170 43
2010-10-18 07:38:34 51°13.007 2°51.351 6.2 328 6.6 102170 43
2010-10-18 07:38:38 51°13.003 2°51.35 6.1 286 6.5 102160 43
2010-10-18 07:38:44 51°12.999 2°51.348 6.5 327 6.5 102160 43
2010-10-18 07:38:49 51°12.995 2°51.347 5.9 329 6.6 102160 43
2010-10-18 07:38:54 51°12.991 2°51.345 6.6 330 6.6 102160 43
2010-10-18 07:38:58 51°12.988 2°51.344 6.7 287 6.5 102160 44
2010-10-18 07:39:03 51°12.985 2°51.342 7.3 325 6.5 102160 44
2010-10-18 07:39:09 51°12.98 2°51.339 7.6 327 6.6 102160 44
2010-10-18 07:39:14 51°12.976 2°51.337 7.1 329 6.6 102160 44
2010-10-18 07:39:18 51°12.974 2°51.335 7.1 284 6.6 102160 45
2010-10-18 07:39:24 51°12.971 2°51.331 6.4 325 6.6 102160 45
2010-10-18 07:39:29 51°12.967 2°51.328 6.6 284 6.6 102170 43
2010-10-18 07:39:34 51°12.963 2°51.325 5.7 320 6.6 102170 43
2010-10-18 07:39:38 51°12.96 2°51.322 6.3 324 6.6 102160 43
2010-10-18 07:39:43 51°12.957 2°51.318 6.1 318 6.6 102160 43
2010-10-18 07:39:49 51°12.953 2°51.313 7.1 279 6.6 102170 44
2010-10-18 07:39:54 51°12.95 2°51.309 6.9 318 6.6 102170 44
2010-10-18 07:39:58 51°12.948 2°51.305 6.8 280 6.6 102160 44
2010-10-18 07:40:04 51°12.944 2°51.299 6.8 316 6.6 102160 44
2010-10-18 07:40:09 51°12.941 2°51.293 6.9 320 6.6 102160 45
2010-10-18 07:40:14 51°12.938 2°51.288 7.3 317 6.6 102160 45
2010-10-18 07:40:18 51°12.936 2°51.284 7.5 317 6.6 102160 45
2010-10-18 07:40:23 51°12.933 2°51.277 6.8 318 6.6 102160 45
2010-10-18 07:40:29 51°12.929 2°51.27 6.9 317 6.6 102160 43
2010-10-18 07:40:34 51°12.927 2°51.264 8.1 34 6.6 102160 43
2010-10-18 07:40:38 51°12.925 2°51.259 7.7 279 6.6 102160 43
2010-10-18 07:40:43 51°12.922 2°51.252 7.8 37 6.6 102160 43
2010-10-18 07:40:49 51°12.918 2°51.245 8.2 316 6.6 102150 43
2010-10-18 07:40:54 51°12.916 2°51.238 6.9 33 6.6 102150 43
2010-10-18 07:40:58 51°12.914 2°51.233 8.5 285 6.6 102150 43
2010-10-18 07:41:04 51°12.911 2°51.225 7.4 316 6.6 102150 43
2010-10-18 07:41:09 51°12.908 2°51.219 7.2 21 6.6 102150 43
2010-10-18 07:41:14 51°12.905 2°51.212 6.4 316 6.6 102150 43
2010-10-18 07:41:18 51°12.903 2°51.207 7.4 278 6.6 102160 43
2010-10-18 07:41:23 51°12.901 2°51.2 7.1 36 6.6 102160 43
2010-10-18 07:41:29 51°12.897 2°51.192 7.8 284 6.6 102150 43
2010-10-18 07:41:34 51°12.894 2°51.186 6.4 317 6.6 102150 43
2010-10-18 07:41:38 51°12.892 2°51.181 6.8 286 6.6 102150 43
2010-10-18 07:41:44 51°12.888 2°51.174 7.9 322 6.6 102150 43
2010-10-18 07:41:49 51°12.885 2°51.167 7.4 283 6.6 102150 43
2010-10-18 07:41:54 51°12.882 2°51.162 7.3 317 6.6 102150 43
2010-10-18 07:41:58 51°12.879 2°51.157 7.5 318 6.6 102150 43
2010-10-18 07:42:03 51°12.876 2°51.152 7.3 319 6.6 102150 43
2010-10-18 07:42:09 51°12.872 2°51.145 7.5 322 6.6 102150 43
2010-10-18 07:42:14 51°12.868 2°51.139 6.9 320 6.6 102150 43
2010-10-18 07:42:18 51°12.865 2°51.135 6.6 320 6.6 102160 43
2010-10-18 07:42:23 51°12.861 2°51.13 6.4 322 6.6 102160 43
2010-10-18 07:42:29 51°12.857 2°51.124 6.7 320 6.6 102150 43
2010-10-18 07:42:34 51°12.853 2°51.119 7.2 321 6.6 102150 43
2010-10-18 07:42:38 51°12.85 2°51.115 6.5 287 6.6 102160 44
2010-10-18 07:42:44 51°12.845 2°51.109 7.1 322 6.6 102160 44
2010-10-18 07:42:49 51°12.841 2°51.104 7.9 320 6.6 102160 43
2010-10-18 07:42:54 51°12.837 2°51.099 6.6 323 6.6 102160 43
2010-10-18 07:42:58 51°12.834 2°51.095 6.5 283 6.7 102160 44
2010-10-18 07:43:03 51°12.83 2°51.09 6.9 321 6.7 102160 44
2010-10-18 07:43:09 51°12.826 2°51.084 7 324 6.7 102160 44
2010-10-18 07:43:14 51°12.822 2°51.079 6.9 320 6.7 102160 44
2010-10-18 07:43:18 51°12.819 2°51.075 7 280 6.7 102160 42
2010-10-18 07:43:24 51°12.815 2°51.068 7.3 321 6.7 102160 42
2010-10-18 07:43:29 51°12.811 2°51.063 7 320 6.7 102160 44
2010-10-18 07:43:34 51°12.807 2°51.057 7.5 323 6.7 102160 44
2010-10-18 07:43:38 51°12.804 2°51.053 7.8 322 6.8 102160 44
2010-10-18 07:43:43 51°12.801 2°51.048 7 321 6.8 102160 44
2010-10-18 07:43:49 51°12.797 2°51.041 7.2 285 6.7 102160 43
2010-10-18 07:43:54 51°12.793 2°51.035 6.8 31 6.7 102160 43
2010-10-18 07:43:58 51°12.79 2°51.031 6.9 280 6.7 102160 44
2010-10-18 07:44:04 51°12.786 2°51.024 6.9 320 6.7 102160 44
2010-10-18 07:44:09 51°12.783 2°51.018 6.7 319 6.8 102160 43
2010-10-18 07:44:14 51°12.779 2°51.012 6.1 319 6.8 102160 43
2010-10-18 07:44:18 51°12.776 2°51.008 5.8 319 6.8 102160 45
2010-10-18 07:44:23 51°12.773 2°51.002 6.9 318 6.8 102160 45
2010-10-18 07:44:29 51°12.769 2°50.996 6.8 285 6.8 102160 43
2010-10-18 07:44:34 51°12.765 2°50.99 7.1 320 6.8 102160 43
2010-10-18 07:44:38 51°12.763 2°50.985 6.8 317 6.7 102160 43
2010-10-18 07:44:43 51°12.76 2°50.979 7.1 317 6.7 102160 43
2010-10-18 07:44:49 51°12.756 2°50.972 7.3 317 6.8 102160 44
2010-10-18 07:44:54 51°12.753 2°50.967 7.2 317 6.8 102160 44
2010-10-18 07:44:58 51°12.751 2°50.962 7.7 285 6.8 102160 43
2010-10-18 07:45:04 51°12.747 2°50.955 8.2 33 6.8 102160 43
2010-10-18 07:45:09 51°12.744 2°50.949 7.4 317 6.7 102160 44
2010-10-18 07:45:14 51°12.741 2°50.944 7 318 6.7 102160 44
2010-10-18 07:45:18 51°12.739 2°50.939 6.8 286 6.7 102160 44
2010-10-18 07:45:23 51°12.736 2°50.933 6.4 316 6.7 102160 44
2010-10-18 07:45:29 51°12.733 2°50.926 6.1 318 6.7 102160 43
2010-10-18 07:45:34 51°12.73 2°50.92 6.8 40 6.7 102160 43